Location: Huisseau
(47.5933°N, 1.4533°E)
Time: 19:03:05
(UTC+00:00)

CENTAUR R/B - Pass Details

Date: 27 November 2025
Orbit: 633 x 1547 km, 63.4° (Epoch: 06 December)

Event Time Altitude Azimuth Distance (km) Brightness Sun altitude
Rises 16:50:46 0° 162° (SSE) 3,174 5.3 -7.4°
Reaches altitude 10° 16:53:54 10° 140° (SE) 2,388 4.4 -7.9°
Maximum altitude 16:57:07 16° 104° (ESE) 2,150 3.9 -8.4°
Enters shadow 17:00:26 11° 70° (ENE) 2,665 4.1 -8.9°
